SV2BZQ-2 Weather Reports


time (UTC)temp
C
wind
direction
speed
KPH
gust
KPH
rain 1hr
cm
rain 24hr
cm
rain mn
cm
humidity
%
barometer
mb
20260507122705 19 91 4.8 9.7 0.00 0.00 0.00 78 1016.4
20260507122622 18 67 4.8 9.7 0.00 0.00 0.00 79 1016.4
20260507122456 18 86 4.8 9.7 0.00 0.00 0.00 79 1016.4
20260507122251 18 80 3.2 9.7 0.00 0.00 0.00 80 1016.6
20260507122037 19 85 1.6 9.7 0.00 0.00 0.00 81 1016.4
20260507122020 19 90 1.6 9.7 0.00 0.00 0.00 81 1016.4
20260507121839 19 68 1.6 9.7 0.00 0.00 0.00 82 1016.7
20260507121636 19 113 0.0 3.2 0.00 0.00 0.00 83 1016.7
20260507121157 18 188 0.0 3.2 0.00 0.00 0.00 83 1016.7
20260507120952 18 188 0.0 3.2 0.00 0.00 0.00 82 1016.7
20260507120834 18 92 0.0 1.6 0.00 0.00 0.00 82 1016.7
20260507120819 18 0 0.0 1.6 0.00 0.00 0.00 82 1016.7
20260507120612 18 0 0.0 1.6 0.00 0.00 0.00 82 1016.7
20260507120445 18 5 0.0 3.2 0.00 0.00 0.00 82 1016.7
20260507120014 18 69 0.0 3.2 0.00 0.00 0.00 82 1016.7
20260507115814 18 71 1.6 3.2 0.00 0.00 0.00 81 1016.7
20260507115629 18 71 1.6 3.2 0.00 0.00 0.00 81 1016.7
20260507115559 18 71 1.6 4.8 0.00 0.00 0.00 81 1016.7
20260507115542 22 188 6.4 16.1 0.00 0.00 0.00 66 1012.6
20260507115416 18 24 1.6 6.4 0.00 0.00 0.00 81 1016.8
20260507115221 23 219 4.8 16.1 0.00 0.00 0.00 63 1012.6
20260507115147 18 64 1.6 6.4 0.00 0.00 0.00 81 1016.7
20260507115120 18 355 1.6 6.4 0.00 0.00 0.00 81 1016.7
20260507115050 23 227 6.4 17.7 0.00 0.00 0.00 63 1012.7
20260507114958 18 37 1.6 6.4 0.00 0.00 0.00 80 1016.7
20260507114931 23 168 6.4 12.9 0.00 0.00 0.00 62 1012.6
20260507114859 23 176 8.0 12.9 0.00 0.00 0.00 61 1012.7
20260507114750 18 0 3.2 6.4 0.00 0.00 0.00 80 1016.7
20260507114735 24 210 6.4 16.1 0.00 0.00 0.00 60 1012.7
20260507114718 24 161 8.0 17.7 0.00 0.00 0.00 60 1012.8
20260507114618 18 23 3.2 8.0 0.00 0.00 0.00 80 1016.9
20260507114543 18 18 3.2 8.0 0.00 0.00 0.00 80 1016.9
20260507114451 24 206 9.7 20.9 0.00 0.00 0.00 61 1012.8
20260507114337 18 14 3.2 8.0 0.00 0.00 0.00 80 1017.0
20260507114316 25 202 9.7 22.5 0.00 0.00 0.00 60 1012.8
20260507114109 18 342 4.8 8.0 0.00 0.00 0.00 80 1017.0
20260507113933 18 320 4.8 8.0 0.00 0.00 0.00 80 1017.1
20260507113741 18 323 4.8 12.9 0.00 0.00 0.00 80 1017.1
20260507113636 18 332 6.4 12.9 0.00 0.00 0.00 80 1017.1
20260507113605 18 322 6.4 12.9 0.00 0.00 0.00 80 1017.1
20260507113425 18 346 6.4 12.9 0.00 0.00 0.00 79 1017.2
20260507113251 18 40 6.4 12.9 0.00 0.00 0.00 79 1017.2
20260507113218 18 318 6.4 12.9 0.00 0.00 0.00 79 1017.2
20260507113115 18 0 6.4 12.9 0.00 0.00 0.00 79 1017.4
20260507112735 18 318 6.4 11.3 0.00 0.00 0.00 79 1017.5
20260507112611 18 322 4.8 11.3 0.00 0.00 0.00 79 1017.4
20260507112533 18 282 4.8 11.3 0.00 0.00 0.00 79 1017.4
20260507112337 18 327 4.8 9.7 0.00 0.00 0.00 79 1017.5
20260507112329 26 203 8.0 17.7 0.00 0.00 0.00 54 1013.2
20260507112149 18 327 4.8 9.7 0.00 0.00 0.00 79 1017.4
20260507112114 18 340 4.8 9.7 0.00 0.00 0.00 79 1017.4
20260507111935 19 333 4.8 8.0 0.00 0.00 0.00 79 1017.5
20260507111732 19 304 4.8 8.0 0.00 0.00 0.00 79 1017.5
20260507111607 19 329 4.8 8.0 0.00 0.00 0.00 80 1017.5
20260507111532 19 331 4.8 8.0 0.00 0.00 0.00 80 1017.5
20260507111325 19 310 4.8 8.0 0.00 0.00 0.00 80 1017.5
20260507111218 26 205 4.8 14.5 0.00 0.00 0.00 45 1013.7
20260507111141 19 338 4.8 8.0 0.00 0.00 0.00 79 1017.5
20260507111114 19 337 4.8 8.0 0.00 0.00 0.00 79 1017.5
20260507111021 26 113 6.4 14.5 0.00 0.00 0.00 45 1013.8
20260507110950 26 195 6.4 14.5 0.00 0.00 0.00 46 1013.8
20260507110925 19 334 4.8 8.0 0.00 0.00 0.00 79 1017.5
20260507110731 19 355 3.2 8.0 0.00 0.00 0.00 80 1017.5
20260507110616 19 268 3.2 6.4 0.00 0.00 0.00 79 1017.5
20260507110529 19 329 3.2 6.4 0.00 0.00 0.00 79 1017.5
20260507110342 19 291 3.2 6.4 0.00 0.00 0.00 79 1017.4
20260507110157 19 342 3.2 6.4 0.00 0.00 0.00 79 1017.5
20260507110141 19 295 3.2 6.4 0.00 0.00 0.00 79 1017.5
20260507110022 19 322 3.2 6.4 0.00 0.00 0.00 78 1017.4
20260507105906 19 321 3.2 6.4 0.00 0.00 0.00 78 1017.4
20260507105817 20 273 3.2 6.4 0.00 0.00 0.00 78 1017.3
20260507105741 20 314 3.2 6.4 0.00 0.00 0.00 77 1017.3
20260507105605 20 300 3.2 8.0 0.00 0.00 0.00 77 1017.3
20260507105432 20 296 3.2 9.7 0.00 0.00 0.00 77 1017.3
20260507105422 20 332 4.8 9.7 0.00 0.00 0.00 77 1017.3
20260507105310 20 332 4.8 9.7 0.00 0.00 0.00 76 1017.3
20260507105200 20 332 4.8 9.7 0.00 0.00 0.00 76 1017.3
20260507105122 20 332 4.8 9.7 0.00 0.00 0.00 76 1017.3
20260507105039 20 279 4.8 9.7 0.00 0.00 0.00 76 1017.3
20260507104901 20 323 4.8 9.7 0.00 0.00 0.00 76 1017.2
20260507104723 20 307 4.8 8.0 0.00 0.00 0.00 76 1017.2
20260507104712 20 321 4.8 8.0 0.00 0.00 0.00 76 1017.2
20260507104554 20 319 4.8 8.0 0.00 0.00 0.00 75 1017.2
20260507104435 20 5 4.8 8.0 0.00 0.00 0.00 75 1017.2
20260507104039 20 324 4.8 8.0 0.00 0.00 0.00 75 1017.2
20260507103850 20 325 4.8 8.0 0.00 0.00 0.00 75 1017.3
20260507103727 20 322 4.8 9.7 0.00 0.00 0.00 75 1017.3
20260507103720 20 310 4.8 9.7 0.00 0.00 0.00 75 1017.3
20260507103606 20 335 4.8 9.7 0.00 0.00 0.00 75 1017.3
20260507103436 20 355 4.8 9.7 0.00 0.00 0.00 75 1017.3
20260507103359 20 342 4.8 9.7 0.00 0.00 0.00 74 1017.2
20260507103318 20 317 4.8 9.7 0.00 0.00 0.00 74 1017.2
20260507103137 20 297 4.8 9.7 0.00 0.00 0.00 74 1017.2
20260507102939 20 317 4.8 9.7 0.00 0.00 0.00 73 1017.2
20260507102922 20 284 4.8 9.7 0.00 0.00 0.00 73 1017.2
20260507102754 21 265 4.8 9.7 0.00 0.00 0.00 73 1017.1
20260507102630 21 277 4.8 9.7 0.00 0.00 0.00 72 1017.1
20260507102539 21 301 4.8 9.7 0.00 0.00 0.00 72 1017.1
20260507102448 21 259 4.8 11.3 0.00 0.00 0.00 72 1017.1
20260507102320 21 290 4.8 11.3 0.00 0.00 0.00 71 1017.1
20260507102213 21 284 4.8 11.3 0.00 0.00 0.00 71 1017.1
20260507102156 21 317 4.8 11.3 0.00 0.00 0.00 71 1017.1
20260507102025 21 292 6.4 11.3 0.00 0.00 0.00 71 1017.2
20260507101833 21 308 4.8 11.3 0.00 0.00 0.00 70 1017.2
20260507101730 21 292 4.8 11.3 0.00 0.00 0.00 70 1017.2
20260507101642 21 283 4.8 11.3 0.00 0.00 0.00 70 1017.2
20260507101508 21 325 4.8 11.3 0.00 0.00 0.00 69 1017.2
20260507101342 21 265 4.8 11.3 0.00 0.00 0.00 69 1017.2
20260507101321 21 282 4.8 11.3 0.00 0.00 0.00 69 1017.2
20260507101158 21 323 3.2 8.0 0.00 0.00 0.00 69 1017.2
20260507101023 21 284 3.2 8.0 0.00 0.00 0.00 69 1017.2
20260507100955 21 269 3.2 8.0 0.00 0.00 0.00 69 1017.2
20260507100908 21 286 3.2 8.0 0.00 0.00 0.00 69 1017.2
20260507100733 21 330 3.2 8.0 0.00 0.00 0.00 69 1017.2
20260507100611 21 330 3.2 6.4 0.00 0.00 0.00 69 1017.1
20260507100541 21 311 3.2 6.4 0.00 0.00 0.00 70 1017.1
20260507100331 21 311 3.2 6.4 0.00 0.00 0.00 69 1017.1
20260507100159 21 334 3.2 8.0 0.00 0.00 0.00 69 1017.1
20260507100125 21 333 3.2 8.0 0.00 0.00 0.00 69 1017.1
20260507100011 21 279 3.2 8.0 0.00 0.00 0.00 69 1017.1
20260507095620 21 241 3.2 8.0 0.00 0.00 0.00 69 1017.1
20260507095206 21 221 3.2 8.0 0.00 0.00 0.00 69 1017.1
20260507095029 21 221 3.2 8.0 0.00 0.00 0.00 69 1017.1
20260507094845 21 230 3.2 6.4 0.00 0.00 0.00 69 1017.1
20260507094813 21 272 3.2 6.4 0.00 0.00 0.00 69 1017.1
20260507094714 21 228 1.6 6.4 0.00 0.00 0.00 70 1017.1
20260507094534 21 254 1.6 6.4 0.00 0.00 0.00 70 1017.1
20260507094409 21 244 1.6 6.4 0.00 0.00 0.00 70 1017.0
20260507094355 21 244 1.6 6.4 0.00 0.00 0.00 70 1017.1
20260507094242 21 271 1.6 6.4 0.00 0.00 0.00 70 1017.0
20260507094130 21 296 3.2 6.4 0.00 0.00 0.00 69 1017.0
20260507093738 21 273 1.6 6.4 0.00 0.00 0.00 69 1017.0
20260507093602 21 255 1.6 6.4 0.00 0.00 0.00 69 1016.9
20260507093432 21 255 1.6 6.4 0.00 0.00 0.00 69 1016.7
20260507093341 21 212 1.6 6.4 0.00 0.00 0.00 69 1016.7
20260507093158 21 229 1.6 4.8 0.00 0.00 0.00 69 1016.7
20260507092959 21 229 1.6 6.4 0.00 0.00 0.00 69 1016.6
20260507092933 21 229 1.6 6.4 0.00 0.00 0.00 69 1016.6
20260507092756 21 229 1.6 6.4 0.00 0.00 0.00 70 1016.4
20260507092615 21 229 1.6 6.4 0.00 0.00 0.00 70 1016.3
20260507092504 21 227 1.6 6.4 0.00 0.00 0.00 70 1016.3
20260507092434 21 226 1.6 6.4 0.00 0.00 0.00 70 1016.3
20260507092230 21 219 1.6 6.4 0.00 0.00 0.00 70 1016.3
20260507092058 21 227 1.6 3.2 0.00 0.00 0.00 70 1016.2
20260507092019 21 227 1.6 3.2 0.00 0.00 0.00 70 1016.2
20260507091913 21 227 1.6 3.2 0.00 0.00 0.00 71 1016.2
20260507091732 21 227 1.6 3.2 0.00 0.00 0.00 71 1016.2
20260507091625 21 227 0.0 3.2 0.00 0.00 0.00 71 1016.2
20260507091552 21 227 0.0 3.2 0.00 0.00 0.00 71 1016.2
20260507091425 21 170 0.0 3.2 0.00 0.00 0.00 71 1016.2
20260507091224 21 169 0.0 3.2 0.00 0.00 0.00 72 1016.2
20260507091040 21 169 0.0 3.2 0.00 0.00 0.00 72 1016.0
20260507090853 20 170 0.0 3.2 0.00 0.00 0.00 72 1016.0
20260507090759 20 170 0.0 4.8 0.00 0.00 0.00 72 1016.0
20260507090723 20 169 0.0 4.8 0.00 0.00 0.00 72 1016.0
20260507090546 20 170 1.6 4.8 0.00 0.00 0.00 72 1016.0
20260507090329 20 169 1.6 4.8 0.00 0.00 0.00 72 1016.1
20260507090149 21 169 1.6 4.8 0.00 0.00 0.00 73 1016.1
20260507085956 21 215 1.6 4.8 0.00 0.00 0.00 73 1016.2
20260507085908 21 176 1.6 4.8 0.00 0.00 0.00 73 1016.2
20260507085649 21 169 1.6 4.8 0.00 0.00 0.00 73 1016.2
20260507085529 21 225 1.6 4.8 0.00 0.00 0.00 73 1016.2
20260507085351 21 188 1.6 4.8 0.00 0.00 0.00 73 1016.2
20260507085204 21 188 1.6 6.4 0.00 0.00 0.00 74 1016.2
20260507084936 21 168 1.6 6.4 0.00 0.00 0.00 74 1016.1
20260507084811 21 168 1.6 6.4 0.00 0.00 0.00 74 1016.1
20260507084653 21 168 1.6 6.4 0.00 0.00 0.00 74 1016.0
20260507084506 21 168 1.6 6.4 0.00 0.00 0.00 74 1015.9
20260507084246 21 168 1.6 6.4 0.00 0.00 0.00 73 1015.9
20260507084120 21 168 0.0 3.2 0.00 0.00 0.00 73 1015.9
20260507083931 21 168 1.6 4.8 0.00 0.00 0.00 73 1015.9
20260507083853 21 168 1.6 6.4 0.00 0.00 0.00 73 1015.8
20260507083748 21 168 1.6 6.4 0.00 0.00 0.00 73 1015.8
20260507083622 21 168 1.6 6.4 0.00 0.00 0.00 73 1015.7
20260507083438 21 136 1.6 6.4 0.00 0.00 0.00 73 1015.7
20260507083309 21 136 1.6 6.4 0.00 0.00 0.00 73 1015.7
20260507083123 20 157 1.6 6.4 0.00 0.00 0.00 72 1015.7
20260507083052 20 173 1.6 4.8 0.00 0.00 0.00 72 1015.7
20260507082931 20 159 1.6 6.4 0.00 0.00 0.00 72 1015.7
20260507082744 20 173 1.6 6.4 0.00 0.00 0.00 72 1015.7
20260507082533 20 186 1.6 6.4 0.00 0.00 0.00 72 1015.7
20260507082502 20 186 1.6 6.4 0.00 0.00 0.00 72 1015.7
20260507082225 20 185 1.6 6.4 0.00 0.00 0.00 72 1015.8
20260507081952 20 210 1.6 6.4 0.00 0.00 0.00 72 1015.8
20260507081852 20 203 1.6 6.4 0.00 0.00 0.00 72 1015.8
20260507081737 20 196 1.6 6.4 0.00 0.00 0.00 72 1015.7
20260507081620 20 183 3.2 6.4 0.00 0.00 0.00 73 1015.7
20260507081344 20 183 3.2 6.4 0.00 0.00 0.00 73 1015.7
20260507081229 20 183 3.2 6.4 0.00 0.00 0.00 72 1015.7
20260507081041 20 225 3.2 6.4 0.00 0.00 0.00 73 1015.6
20260507081002 20 194 3.2 6.4 0.00 0.00 0.00 73 1015.6
20260507080902 20 190 3.2 6.4 0.00 0.00 0.00 73 1015.6
20260507080725 20 133 1.6 6.4 0.00 0.00 0.00 73 1015.6
20260507080535 20 140 1.6 6.4 0.00 0.00 0.00 73 1015.6
20260507080326 20 198 1.6 6.4 0.00 0.00 0.00 73 1015.5
20260507080105 20 171 1.6 6.4 0.00 0.00 0.00 73 1015.3
20260507080008 20 192 1.6 6.4 0.00 0.00 0.00 73 1015.3
20260507075839 20 169 0.0 6.4 0.00 0.00 0.00 73 1015.3
20260507075645 20 168 0.0 3.2 0.00 0.00 0.00 73 1015.3
20260507075426 20 168 1.6 3.2 0.00 0.00 0.00 73 1015.3
20260507075413 20 168 1.6 3.2 0.00 0.00 0.00 74 1015.3
20260507075208 20 168 1.6 3.2 0.00 0.00 0.00 73 1015.3
20260507074932 20 168 1.6 3.2 0.00 0.00 0.00 74 1015.2
20260507074842 20 168 1.6 3.2 0.00 0.00 0.00 74 1015.2
20260507074731 20 160 1.6 3.2 0.00 0.00 0.00 74 1015.1
20260507074553 20 113 1.6 4.8 0.00 0.00 0.00 74 1015.0
20260507074418 20 71 1.6 4.8 0.00 0.00 0.00 74 1015.0
20260507074327 20 69 1.6 4.8 0.00 0.00 0.00 74 1015.0
20260507074122 20 69 1.6 4.8 0.00 0.00 0.00 74 1015.0
20260507073858 20 70 1.6 4.8 0.00 0.00 0.00 74 1014.9
20260507073826 20 98 1.6 4.8 0.00 0.00 0.00 74 1015.0
20260507073652 20 99 1.6 4.8 0.00 0.00 0.00 74 1015.0
20260507073543 20 57 0.0 4.8 0.00 0.00 0.00 75 1015.0
20260507073055 20 79 0.0 4.8 0.00 0.00 0.00 75 1015.0
20260507072849 20 81 1.6 4.8 0.00 0.00 0.00 75 1015.0
20260507072656 20 355 1.6 4.8 0.00 0.00 0.00 75 1015.1
20260507072255 20 345 1.6 6.4 0.00 0.00 0.00 75 1015.2
20260507072101 20 343 3.2 6.4 0.00 0.00 0.00 75 1015.3
20260507071854 20 343 3.2 6.4 0.00 0.00 0.00 75 1015.3
20260507071830 20 343 3.2 6.4 0.00 0.00 0.00 75 1015.3
20260507071624 20 322 3.2 6.4 0.00 0.00 0.00 76 1015.4
20260507071359 20 306 1.6 6.4 0.00 0.00 0.00 76 1015.3
20260507071328 20 242 1.6 6.4 0.00 0.00 0.00 77 1015.3
20260507071228 20 227 1.6 6.4 0.00 0.00 0.00 77 1015.4
20260507071104 20 228 1.6 6.4 0.00 0.00 0.00 77 1015.3
20260507070721 19 34 1.6 6.4 0.00 0.00 0.00 78 1015.3
20260507070516 19 263 1.6 6.4 0.00 0.00 0.00 79 1015.3
20260507070348 19 263 1.6 6.4 0.00 0.00 0.00 79 1015.3
20260507070305 19 263 1.6 6.4 0.00 0.00 0.00 79 1015.3
20260507070204 19 175 1.6 6.4 0.00 0.00 0.00 80 1015.4
20260507070025 19 246 1.6 3.2 0.00 0.00 0.00 80 1015.3
20260507065926 19 246 1.6 4.8 0.00 0.00 0.00 80 1015.3
20260507065901 19 246 1.6 4.8 0.00 0.00 0.00 80 1015.3
20260507065724 18 246 1.6 4.8 0.00 0.00 0.00 81 1015.3
20260507065606 18 246 1.6 4.8 0.00 0.00 0.00 81 1015.3
20260507065542 18 246 1.6 6.4 0.00 0.00 0.00 81 1015.4
20260507065443 18 202 1.6 6.4 0.00 0.00 0.00 80 1015.3
20260507065313 18 202 1.6 6.4 0.00 0.00 0.00 81 1015.4
20260507065157 18 191 1.6 6.4 0.00 0.00 0.00 81 1015.4
20260507065127 18 242 1.6 6.4 0.00 0.00 0.00 81 1015.4
20260507064937 18 234 1.6 6.4 0.00 0.00 0.00 81 1015.5
20260507064810 18 206 1.6 4.8 0.00 0.00 0.00 82 1015.5
20260507064728 18 219 1.6 4.8 0.00 0.00 0.00 82 1015.5
20260507064607 18 221 1.6 4.8 0.00 0.00 0.00 82 1015.4
20260507064413 18 232 1.6 4.8 0.00 0.00 0.00 82 1015.4
20260507064313 18 303 1.6 4.8 0.00 0.00 0.00 82 1015.4
20260507064242 18 303 1.6 4.8 0.00 0.00 0.00 82 1015.4
20260507064111 18 286 1.6 4.8 0.00 0.00 0.00 82 1015.4
20260507063948 18 269 1.6 6.4 0.00 0.00 0.00 82 1015.4
20260507063922 18 269 1.6 6.4 0.00 0.00 0.00 82 1015.4
20260507063711 18 194 3.2 6.4 0.00 0.00 0.00 82 1015.4
20260507063536 18 245 3.2 6.4 0.00 0.00 0.00 82 1015.3
20260507063415 18 245 3.2 6.4 0.00 0.00 0.00 82 1015.3
20260507063334 18 279 3.2 6.4 0.00 0.00 0.00 83 1015.3
20260507063125 18 214 3.2 8.0 0.00 0.00 0.00 83 1015.4
20260507062921 18 271 3.2 8.0 0.00 0.00 0.00 83 1015.3
20260507062905 18 271 3.2 8.0 0.00 0.00 0.00 83 1015.3
20260507062722 18 204 3.2 8.0 0.00 0.00 0.00 83 1015.3
20260507062553 18 254 3.2 8.0 0.00 0.00 0.00 83 1015.3
20260507062502 18 233 3.2 8.0 0.00 0.00 0.00 84 1015.3
20260507062403 18 217 3.2 8.0 0.00 0.00 0.00 84 1015.3
20260507062226 18 238 3.2 6.4 0.00 0.00 0.00 84 1015.3
20260507062048 17 253 3.2 6.4 0.00 0.00 0.00 85 1015.2
20260507062024 17 254 3.2 6.4 0.00 0.00 0.00 85 1015.2
20260507061851 17 227 3.2 6.4 0.00 0.00 0.00 85 1015.2
20260507061707 17 226 1.6 6.4 0.00 0.00 0.00 86 1015.1
20260507061601 17 229 1.6 6.4 0.00 0.00 0.00 86 1015.1
20260507061504 17 229 1.6 6.4 0.00 0.00 0.00 86 1015.1
20260507061321 17 229 1.6 6.4 0.00 0.00 0.00 87 1015.0
20260507060928 17 218 1.6 4.8 0.00 0.00 0.00 87 1015.0
20260507060710 17 218 1.6 4.8 0.00 0.00 0.00 87 1015.1
20260507060506 17 217 1.6 4.8 0.00 0.00 0.00 88 1015.0
20260507060435 17 218 1.6 4.8 0.00 0.00 0.00 88 1015.0
20260507060334 17 229 1.6 4.8 0.00 0.00 0.00 88 1015.0
20260507060145 17 186 1.6 4.8 0.00 0.00 0.00 88 1015.1
20260507060012 16 178 1.6 4.8 0.00 0.00 0.00 89 1015.0
20260507055827 16 178 1.6 4.8 0.00 0.00 0.00 89 1015.0
20260507055701 16 178 1.6 4.8 0.00 0.00 0.00 89 1015.1
20260507055248 16 167 1.6 6.4 0.00 0.00 0.00 89 1015.0
20260507055057 16 225 1.6 6.4 0.00 0.00 0.00 89 1015.0
20260507054952 16 225 3.2 6.4 0.00 0.00 0.00 89 1015.1
20260507054928 16 225 3.2 6.4 0.00 0.00 0.00 89 1015.1
20260507054752 16 225 3.2 6.4 0.00 0.00 0.00 89 1015.2
20260507054631 16 236 3.2 6.4 0.00 0.00 0.00 89 1015.2
20260507054607 16 237 1.6 6.4 0.00 0.00 0.00 90 1015.2
20260507054504 15 236 1.6 6.4 0.00 0.00 0.00 90 1015.2
20260507054334 15 238 1.6 6.4 0.00 0.00 0.00 90 1015.1
20260507054157 15 237 0.0 3.2 0.00 0.00 0.00 90 1015.1
20260507054136 15 211 0.0 0.0 0.00 0.00 0.00 90 1015.1
20260507054001 15 211 0.0 0.0 0.00 0.00 0.00 90 1014.9
20260507053817 15 210 0.0 0.0 0.00 0.00 0.00 90 1014.9
20260507053750 15 211 0.0 0.0 0.00 0.00 0.00 91 1014.9
20260507053538 15 211 0.0 0.0 0.00 0.00 0.00 90 1014.9
20260507053419 15 211 0.0 0.0 0.00 0.00 0.00 91 1015.0
20260507053246 15 211 0.0 0.0 0.00 0.00 0.00 91 1015.0
20260507053134 15 211 0.0 0.0 0.00 0.00 0.00 91 1015.0
20260507052924 14 211 0.0 0.0 0.00 0.00 0.00 91 1015.0
20260507052754 14 211 0.0 0.0 0.00 0.00 0.00 91 1015.0
20260507052738 14 211 0.0 0.0 0.00 0.00 0.00 90 1015.0
20260507052610 14 307 0.0 0.0 0.00 0.00 0.00 90 1015.0
20260507052443 13 309 0.0 0.0 0.00 0.00 0.00 91 1014.9
20260507052351 13 308 0.0 0.0 0.00 0.00 0.00 91 1014.9
20260507052328 13 308 0.0 0.0 0.00 0.00 0.00 91 1014.9
20260507052114 13 308 0.0 0.0 0.00 0.00 0.00 90 1014.9
20260507051909 13 309 0.0 0.0 0.00 0.00 0.00 90 1014.9
20260507051823 13 308 0.0 0.0 0.00 0.00 0.00 90 1014.9
20260507051645 13 309 0.0 0.0 0.00 0.00 0.00 90 1014.9
20260507051512 13 308 0.0 0.0 0.00 0.00 0.00 90 1014.9
20260507051059 13 308 0.0 0.0 0.00 0.00 0.00 90 1014.9
20260507050659 13 307 0.0 0.0 0.00 0.00 0.00 90 1014.9
20260507050209 13 308 0.0 0.0 0.00 0.00 0.00 90 1014.9
20260507045956 13 308 0.0 0.0 0.00 0.00 0.00 91 1014.8
20260507045556 13 307 0.0 0.0 0.00 0.00 0.00 90 1014.8
20260507045421 12 307 0.0 0.0 0.00 0.00 0.00 91 1014.8
20260507045150 12 309 0.0 0.0 0.00 0.00 0.00 91 1014.9
20260507045110 12 309 0.0 0.0 0.00 0.00 0.00 91 1014.9
20260507044930 12 308 0.0 0.0 0.00 0.00 0.00 90 1014.8
20260507044802 12 308 0.0 0.0 0.00 0.00 0.00 90 1014.8
20260507044721 12 308 0.0 0.0 0.00 0.00 0.00 90 1014.8
20260507044639 12 309 0.0 0.0 0.00 0.00 0.00 90 1014.8
20260507044454 12 309 0.0 0.0 0.00 0.00 0.00 90 1014.8
20260507044213 12 307 0.0 0.0 0.00 0.00 0.00 90 1014.8
20260507044146 12 308 0.0 0.0 0.00 0.00 0.00 90 1014.8
20260507043853 12 309 0.0 0.0 0.00 0.00 0.00 90 1014.8
20260507043645 12 308 0.0 0.0 0.00 0.00 0.00 90 1014.8
20260507043531 12 307 0.0 1.6 0.00 0.00 0.00 90 1014.8
20260507043418 12 309 0.0 3.2 0.00 0.00 0.00 90 1014.7
20260507043238 12 309 0.0 3.2 0.00 0.00 0.00 90 1014.7
20260507043033 12 308 1.6 3.2 0.00 0.00 0.00 89 1014.7
20260507042851 12 307 1.6 3.2 0.00 0.00 0.00 89 1014.7
20260507042619 12 307 1.6 3.2 0.00 0.00 0.00 89 1014.7
20260507042228 12 308 1.6 3.2 0.00 0.00 0.00 89 1014.7
20260507042022 12 308 1.6 3.2 0.00 0.00 0.00 89 1014.7
20260507041901 12 308 1.6 4.8 0.00 0.00 0.00 89 1014.8
20260507041652 12 308 1.6 4.8 0.00 0.00 0.00 89 1014.7
20260507041523 12 309 3.2 4.8 0.00 0.00 0.00 89 1014.7
20260507041427 12 309 3.2 4.8 0.00 0.00 0.00 89 1014.8
20260507041333 12 309 3.2 4.8 0.00 0.00 0.00 89 1014.8
20260507041155 12 318 3.2 4.8 0.00 0.00 0.00 89 1014.7
20260507041037 12 324 3.2 4.8 0.00 0.00 0.00 89 1014.7
20260507040637 12 345 3.2 6.4 0.00 0.00 0.00 89 1014.6
20260507040525 12 325 3.2 6.4 0.00 0.00 0.00 89 1014.6
20260507040444 12 309 3.2 6.4 0.00 0.00 0.00 89 1014.6
20260507040359 12 326 3.2 6.4 0.00 0.00 0.00 89 1014.6
20260507040140 12 294 3.2 6.4 0.00 0.00 0.00 89 1014.6
20260507040010 12 298 3.2 6.4 0.00 0.00 0.00 89 1014.6
20260507035944 12 333 3.2 6.4 0.00 0.00 0.00 89 1014.6
20260507035819 12 296 3.2 4.8 0.00 0.00 0.00 89 1014.6
20260507035632 12 293 1.6 4.8 0.00 0.00 0.00 89 1014.5
20260507035559 12 293 1.6 4.8 0.00 0.00 0.00 89 1014.5
20260507035442 12 291 1.6 4.8 0.00 0.00 0.00 89 1014.4
20260507035309 12 273 1.6 4.8 0.00 0.00 0.00 89 1014.4
20260507035102 12 287 1.6 4.8 0.00 0.00 0.00 89 1014.4
20260507035043 12 288 1.6 4.8 0.00 0.00 0.00 89 1014.4
20260507034843 12 318 1.6 3.2 0.00 0.00 0.00 89 1014.3
20260507034702 12 318 1.6 3.2 0.00 0.00 0.00 89 1014.3
20260507034556 12 318 1.6 3.2 0.00 0.00 0.00 89 1014.3
20260507034507 12 318 1.6 1.6 0.00 0.00 0.00 89 1014.2
20260507034354 12 318 1.6 3.2 0.00 0.00 0.00 89 1014.2
20260507033946 12 319 1.6 3.2 0.00 0.00 0.00 92 1014.2
20260507033814 12 318 1.6 4.8 0.00 0.00 0.00 92 1014.2
20260507033658 12 318 3.2 4.8 0.00 0.00 0.00 89 1014.2
20260507033626 12 318 3.2 4.8 0.00 0.00 0.00 89 1014.2
20260507033517 12 318 3.2 4.8 0.00 0.00 0.00 89 1014.2
20260507033321 12 318 3.2 4.8 0.00 0.00 0.00 89 1014.2
20260507033110 12 318 3.2 4.8 0.00 0.00 0.00 89 1014.2
20260507032618 12 318 3.2 4.8 0.00 0.00 0.00 89 1014.3
20260507032110 12 319 3.2 4.8 0.00 0.00 0.00 89 1014.3
20260507032008 12 310 3.2 4.8 0.00 0.00 0.00 89 1014.3
20260507031912 12 336 3.2 4.8 0.00 0.00 0.00 89 1014.3
20260507031732 12 300 3.2 4.8 0.00 0.00 0.00 89 1014.3
20260507031557 12 303 3.2 4.8 0.00 0.00 0.00 89 1014.3
20260507031529 12 314 3.2 4.8 0.00 0.00 0.00 89 1014.3
20260507031233 12 304 3.2 4.8 0.00 0.00 0.00 89 1014.3
20260507031016 12 307 3.2 6.4 0.00 0.00 0.00 89 1014.3
20260507030938 12 318 3.2 6.4 0.00 0.00 0.00 89 1014.3
20260507030801 12 309 3.2 6.4 0.00 0.00 0.00 89 1014.3
20260507030539 12 314 3.2 6.4 0.00 0.00 0.00 89 1014.3
20260507030311 12 311 3.2 6.4 0.00 0.00 0.00 89 1014.3
20260507030243 12 323 3.2 6.4 0.00 0.00 0.00 89 1014.3
20260507030059 12 285 1.6 6.4 0.00 0.00 0.00 89 1014.4
20260507025821 12 304 1.6 6.4 0.00 0.00 0.00 89 1014.4
20260507025728 12 286 1.6 6.4 0.00 0.00 0.00 89 1014.3
20260507025541 12 280 1.6 6.4 0.00 0.00 0.00 89 1014.3
20260507025324 12 290 1.6 4.8 0.00 0.00 0.00 89 1014.2
20260507025107 12 290 3.2 4.8 0.00 0.00 0.00 89 1014.2
20260507025024 12 290 3.2 6.4 0.00 0.00 0.00 89 1014.2
20260507024754 12 290 3.2 6.4 0.00 0.00 0.00 89 1014.1
20260507024450 12 333 3.2 6.4 0.00 0.00 0.00 89 1014.1
20260507024429 12 332 3.2 6.4 0.00 0.00 0.00 89 1014.1
20260507024204 12 321 3.2 6.4 0.00 0.00 0.00 89 1014.0
20260507023855 12 326 3.2 6.4 0.00 0.00 0.00 89 1014.1
20260507023625 12 304 3.2 6.4 0.00 0.00 0.00 89 1014.0
20260507023503 12 307 3.2 6.4 0.00 0.00 0.00 89 1014.0
20260507023219 12 338 3.2 6.4 0.00 0.00 0.00 89 1014.0
20260507022939 12 314 3.2 6.4 0.00 0.00 0.00 89 1014.1
20260507022921 12 302 3.2 6.4 0.00 0.00 0.00 89 1014.1
20260507022717 12 304 3.2 6.4 0.00 0.00 0.00 89 1014.0
20260507022541 12 276 1.6 6.4 0.00 0.00 0.00 89 1014.0
20260507022434 12 313 1.6 6.4 0.00 0.00 0.00 89 1014.0
20260507022341 12 294 1.6 4.8 0.00 0.00 0.00 89 1014.0
20260507022139 12 274 1.6 4.8 0.00 0.00 0.00 89 1014.0
20260507021949 12 298 1.6 6.4 0.00 0.00 0.00 89 1014.0
20260507021929 12 295 1.6 6.4 0.00 0.00 0.00 89 1014.0
20260507021811 12 295 3.2 6.4 0.00 0.00 0.00 89 1013.9
20260507021620 12 295 3.2 6.4 0.00 0.00 0.00 89 1013.9
20260507021502 12 285 4.8 6.4 0.00 0.00 0.00 89 1013.9
20260507021415 12 284 4.8 6.4 0.00 0.00 0.00 92 1014.0
20260507021210 12 300 4.8 6.4 0.00 0.00 0.00 90 1014.1
20260507020759 12 324 4.8 6.4 0.00 0.00 0.00 90 1014.1
20260507020749 12 333 4.8 6.4 0.00 0.00 0.00 90 1014.1
20260507020550 12 306 4.8 8.0 0.00 0.00 0.00 90 1014.0
20260507020350 12 322 4.8 8.0 0.00 0.00 0.00 90 1014.1
20260507020254 12 314 4.8 8.0 0.00 0.00 0.00 90 1014.0
20260507020202 12 293 4.8 8.0 0.00 0.00 0.00 90 1014.0
20260507020018 12 299 4.8 8.0 0.00 0.00 0.00 90 1014.1
20260507015852 12 290 4.8 8.0 0.00 0.00 0.00 90 1014.0
20260507015847 12 281 4.8 8.0 0.00 0.00 0.00 90 1014.0
20260507015721 12 333 4.8 8.0 0.00 0.00 0.00 90 1014.1
20260507015345 12 326 4.8 8.0 0.00 0.00 0.00 89 1014.0
20260507015245 12 310 4.8 8.0 0.00 0.00 0.00 90 1014.0
20260507015143 12 338 4.8 8.0 0.00 0.00 0.00 90 1014.0
20260507014942 12 325 4.8 8.0 0.00 0.00 0.00 90 1014.0
20260507014909 25 119 4.8 14.5 0.00 0.00 0.00 48 1014.1
20260507014749 12 294 4.8 9.7 0.00 0.00 0.00 90 1014.1
20260507014617 13 288 4.8 9.7 0.00 0.00 0.00 90 1014.1
20260507014439 13 308 4.8 9.7 0.00 0.00 0.00 90 1014.1
20260507014344 13 312 4.8 9.7 0.00 0.00 0.00 90 1014.1
20260507014258 13 336 4.8 9.7 0.00 0.00 0.00 90 1014.1
20260507014133 13 309 4.8 9.7 0.00 0.00 0.00 90 1014.0
20260507014010 13 292 4.8 9.7 0.00 0.00 0.00 90 1014.1
20260507013849 13 325 6.4 11.3 0.00 0.00 0.00 90 1014.1
20260507013727 13 300 6.4 11.3 0.00 0.00 0.00 90 1014.0
20260507013334 13 315 6.4 11.3 0.00 0.00 0.00 90 1013.9
20260507013215 13 350 6.4 11.3 0.00 0.00 0.00 90 1013.9
20260507013050 13 331 6.4 12.9 0.00 0.00 0.00 90 1013.9
20260507012712 13 295 8.0 12.9 0.00 0.00 0.00 90 1013.9
20260507012536 13 323 8.0 14.5 0.00 0.00 0.00 90 1013.9
20260507012146 13 321 8.0 14.5 0.00 0.00 0.00 90 1013.9
20260507012131 25 114 6.4 14.5 0.00 0.00 0.00 49 1014.1
20260507012026 25 197 4.8 11.3 0.00 0.00 0.00 52 1014.1
20260507011938 13 334 8.0 14.5 0.00 0.00 0.00 89 1013.9
20260507011813 13 309 8.0 14.5 0.00 0.00 0.00 89 1013.9
20260507011804 13 317 8.0 14.5 0.00 0.00 0.00 89 1013.9
20260507011633 13 321 8.0 14.5 0.00 0.00 0.00 89 1013.9
20260507011456 13 311 8.0 12.9 0.00 0.00 0.00 89 1013.9
20260507011416 13 314 8.0 12.9 0.00 0.00 0.00 89 1014.0
20260507011326 13 309 6.4 12.9 0.00 0.00 0.00 89 1014.0
20260507011147 13 321 6.4 12.9 0.00 0.00 0.00 89 1013.9
20260507010746 13 319 6.4 12.9 0.00 0.00 0.00 89 1014.0
20260507010735 13 326 6.4 12.9 0.00 0.00 0.00 89 1014.0
20260507010542 13 316 6.4 12.9 0.00 0.00 0.00 89 1014.0
20260507010335 13 339 6.4 12.9 0.00 0.00 0.00 89 1014.0
20260507010244 13 311 6.4 12.9 0.00 0.00 0.00 89 1014.0
20260507010146 13 314 6.4 12.9 0.00 0.00 0.00 89 1014.0
20260507005943 13 343 6.4 12.9 0.00 0.00 0.00 89 1014.0
20260507005823 13 304 6.4 12.9 0.00 0.00 0.00 89 1014.0
20260507005711 13 290 6.4 11.3 0.00 0.00 0.00 89 1013.9
20260507005531 13 327 4.8 11.3 0.00 0.00 0.00 89 1014.0
20260507005443 13 318 4.8 9.7 0.00 0.00 0.00 89 1013.9
20260507005133 13 294 4.8 9.7 0.00 0.00 0.00 89 1013.9
20260507005117 20 281 1.6 4.8 0.00 0.00 0.00 67 1014.1
20260507004935 13 319 4.8 9.7 0.00 0.00 0.00 89 1013.9
20260507004747 13 295 4.8 6.4 0.00 0.00 0.00 89 1013.8
20260507004629 13 296 4.8 6.4 0.00 0.00 0.00 89 1013.8
20260507004510 13 314 3.2 6.4 0.00 0.00 0.00 88 1013.8
20260507004403 13 331 3.2 6.4 0.00 0.00 0.00 88 1013.8
20260507004324 13 311 3.2 6.4 0.00 0.00 0.00 88 1013.8
20260507003939 13 321 3.2 6.4 0.00 0.00 0.00 88 1013.7
20260507003806 13 308 3.2 6.4 0.00 0.00 0.00 88 1013.7
20260507003656 13 339 3.2 9.7 0.00 0.00 0.00 88 1013.7
20260507003530 13 313 4.8 9.7 0.00 0.00 0.00 88 1013.6
20260507003134 13 0 4.8 9.7 0.00 0.00 0.00 88 1013.7
20260507002959 13 315 4.8 9.7 0.00 0.00 0.00 88 1013.7
20260507002837 13 315 4.8 9.7 0.00 0.00 0.00 88 1013.7
20260507002830 13 321 4.8 9.7 0.00 0.00 0.00 88 1013.7
20260507002714 13 314 4.8 8.0 0.00 0.00 0.00 88 1013.7
20260507002547 13 281 4.8 8.0 0.00 0.00 0.00 88 1013.7
20260507002503 13 306 4.8 8.0 0.00 0.00 0.00 88 1013.8
20260507002417 13 311 4.8 9.7 0.00 0.00 0.00 88 1013.7
20260507002256 13 321 3.2 9.7 0.00 0.00 0.00 88 1013.8
20260507002118 13 303 3.2 9.7 0.00 0.00 0.00 88 1013.8
20260507002111 13 290 3.2 9.7 0.00 0.00 0.00 88 1013.8
20260507001940 13 291 3.2 9.7 0.00 0.00 0.00 88 1013.7
20260507001751 13 288 3.2 9.7 0.00 0.00 0.00 88 1013.6
20260507001715 13 284 3.2 9.7 0.00 0.00 0.00 88 1013.6
20260507001408 13 286 3.2 4.8 0.00 0.00 0.00 88 1013.5
20260507001023 14 306 3.2 4.8 0.00 0.00 0.00 88 1013.5
20260507000913 14 300 1.6 4.8 0.00 0.00 0.00 88 1013.6
20260507000750 14 306 1.6 4.8 0.00 0.00 0.00 88 1013.6
20260507000346 14 300 3.2 4.8 0.00 0.00 0.00 88 1013.6
20260507000215 14 305 3.2 4.8 0.00 0.00 0.00 88 1013.6
20260507000024 14 306 1.6 4.8 0.00 0.00 0.00 88 1013.7
20260506235935 14 307 1.6 4.8 0.00 0.00 0.00 88 1013.7
20260506235736 14 302 1.6 4.8 0.00 0.00 0.00 88 1013.6
20260506235609 14 312 1.6 4.8 0.00 0.00 0.00 88 1013.7
20260506235516 14 326 1.6 4.8 0.00 0.00 0.00 88 1013.7
20260506235402 14 328 1.6 4.8 0.00 0.00 0.00 88 1013.7
20260506235232 14 314 1.6 4.8 0.00 0.00 0.00 88 1013.8
20260506234855 13 324 1.6 4.8 0.00 0.00 0.00 88 1013.9
20260506234732 13 324 1.6 3.2 0.00 0.00 0.00 88 1014.0
20260506234550 13 318 1.6 3.2 0.00 0.00 0.00 88 1014.0
20260506234514 13 315 0.0 3.2 0.00 0.00 0.00 88 1014.0
20260506234420 13 315 0.0 3.2 0.00 0.00 0.00 88 1014.0
20260506234219 13 315 0.0 3.2 0.00 0.00 0.00 87 1014.0
20260506234023 13 315 1.6 6.4 0.00 0.00 0.00 87 1014.1
20260506233952 13 315 1.6 6.4 0.00 0.00 0.00 87 1014.1
20260506233837 13 0 1.6 6.4 0.00 0.00 0.00 87 1014.0
20260506233658 13 0 3.2 6.4 0.00 0.00 0.00 87 1014.0
20260506233544 13 0 3.2 6.4 0.00 0.00 0.00 87 1014.1
20260506233423 13 337 4.8 8.0 0.00 0.00 0.00 87 1014.1
20260506233303 13 335 4.8 8.0 0.00 0.00 0.00 87 1014.1
20260506233201 13 314 4.8 8.0 0.00 0.00 0.00 87 1014.2
20260506233149 13 318 4.8 8.0 0.00 0.00 0.00 87 1014.2
20260506233012 14 318 4.8 8.0 0.00 0.00 0.00 86 1014.1
20260506232844 14 319 4.8 8.0 0.00 0.00 0.00 86 1014.1
20260506232454 14 307 6.4 8.0 0.00 0.00 0.00 86 1014.1
20260506232255 14 306 4.8 8.0 0.00 0.00 0.00 86 1014.1
20260506232116 14 304 4.8 8.0 0.00 0.00 0.00 86 1014.2
20260506232102 14 296 4.8 8.0 0.00 0.00 0.00 86 1014.2
20260506231921 14 327 4.8 8.0 0.00 0.00 0.00 85 1014.1
20260506231753 15 313 4.8 8.0 0.00 0.00 0.00 85 1014.1
20260506231653 15 296 4.8 8.0 0.00 0.00 0.00 85 1014.1
20260506231556 15 327 4.8 8.0 0.00 0.00 0.00 85 1014.1
20260506231429 15 322 4.8 8.0 0.00 0.00 0.00 85 1014.1
20260506231235 15 318 3.2 8.0 0.00 0.00 0.00 85 1014.1
20260506231203 15 317 3.2 8.0 0.00 0.00 0.00 85 1014.0
20260506231026 15 330 3.2 6.4 0.00 0.00 0.00 85 1014.0
20260506230831 15 338 3.2 6.4 0.00 0.00 0.00 85 1014.0
20260506230728 15 311 3.2 6.4 0.00 0.00 0.00 85 1014.0
20260506230616 15 317 3.2 6.4 0.00 0.00 0.00 85 1014.0
20260506230349 15 315 1.6 4.8 0.00 0.00 0.00 85 1014.0
20260506225930 15 315 1.6 4.8 0.00 0.00 0.00 85 1014.0
20260506225808 15 315 0.0 4.8 0.00 0.00 0.00 85 1013.9
20260506225559 15 315 0.0 3.2 0.00 0.00 0.00 85 1013.9
20260506225535 15 315 0.0 3.2 0.00 0.00 0.00 85 1014.0
20260506225423 15 315 0.0 1.6 0.00 0.00 0.00 85 1014.0
20260506225250 15 315 0.0 1.6 0.00 0.00 0.00 85 1013.9
20260506225120 15 315 0.0 1.6 0.00 0.00 0.00 85 1014.1
20260506225046 15 315 0.0 1.6 0.00 0.00 0.00 85 1014.1
20260506224921 15 315 0.0 1.6 0.00 0.00 0.00 85 1014.1
20260506224735 15 315 1.6 1.6 0.00 0.00 0.00 84 1014.0
20260506224722 15 316 1.6 1.6 0.00 0.00 0.00 84 1014.0
20260506224601 15 315 1.6 3.2 0.00 0.00 0.00 84 1014.0
20260506224443 15 315 1.6 3.2 0.00 0.00 0.00 84 1014.1
20260506224342 15 316 1.6 3.2 0.00 0.00 0.00 84 1014.0
20260506224254 16 315 1.6 3.2 0.00 0.00 0.00 84 1014.0
20260506224053 16 315 1.6 3.2 0.00 0.00 0.00 84 1014.0
20260506223911 16 315 1.6 3.2 0.00 0.00 0.00 84 1014.1
20260506223701 16 315 1.6 3.2 0.00 0.00 0.00 84 1014.1
20260506223552 16 315 1.6 4.8 0.00 0.00 0.00 84 1014.0
20260506223226 16 315 1.6 4.8 0.00 0.00 0.00 84 1014.0
20260506222956 16 315 1.6 4.8 0.00 0.00 0.00 84 1014.1
20260506222716 16 315 1.6 4.8 0.00 0.00 0.00 84 1014.0
20260506222331 16 315 1.6 4.8 0.00 0.00 0.00 84 1014.0
20260506222119 16 315 1.6 4.8 0.00 0.00 0.00 84 1014.0
20260506222019 16 315 1.6 4.8 0.00 0.00 0.00 84 1014.1
20260506221903 16 315 1.6 4.8 0.00 0.00 0.00 84 1014.1
20260506221716 16 315 1.6 4.8 0.00 0.00 0.00 84 1014.1
20260506221324 16 315 1.6 4.8 0.00 0.00 0.00 84 1014.2
20260506221134 16 315 1.6 4.8 0.00 0.00 0.00 84 1014.2
20260506220820 16 315 1.6 4.8 0.00 0.00 0.00 84 1014.1
20260506220729 16 315 1.6 3.2 0.00 0.00 0.00 84 1014.1
20260506220618 16 315 0.0 3.2 0.00 0.00 0.00 84 1014.1
20260506220503 16 315 0.0 3.2 0.00 0.00 0.00 84 1014.1
20260506220322 17 315 0.0 3.2 0.00 0.00 0.00 84 1014.1
20260506220243 17 315 0.0 3.2 0.00 0.00 0.00 84 1014.1
20260506220056 17 315 0.0 1.6 0.00 0.00 0.00 84 1014.0
20260506215924 17 315 0.0 1.6 0.00 0.00 0.00 84 1014.0
20260506215851 17 315 0.0 1.6 0.00 0.00 0.00 84 1014.0
20260506215748 17 315 0.0 1.6 0.00 0.00 0.00 84 1014.1
20260506215557 17 315 0.0 1.6 0.00 0.00 0.00 84 1014.1
20260506215429 17 315 0.0 1.6 0.00 0.00 0.00 84 1014.1
20260506215403 17 315 0.0 0.0 0.00 0.00 0.00 84 1014.1
20260506215126 17 315 0.0 0.0 0.00 0.00 0.00 84 1014.1
20260506214914 17 315 0.0 1.6 0.00 0.00 0.00 84 1014.1
20260506214717 17 315 0.0 3.2 0.00 0.00 0.00 84 1014.1
20260506214542 17 315 0.0 3.2 0.00 0.00 0.00 84 1014.1
20260506214435 17 315 0.0 3.2 0.00 0.00 0.00 84 1014.1
20260506214311 17 315 0.0 3.2 0.00 0.00 0.00 84 1014.0
20260506214144 17 315 0.0 3.2 0.00 0.00 0.00 84 1014.0
20260506213959 17 315 0.0 3.2 0.00 0.00 0.00 84 1014.1
20260506213755 17 315 0.0 3.2 0.00 0.00 0.00 84 1014.1
20260506213552 17 315 0.0 3.2 0.00 0.00 0.00 84 1014.1
20260506213202 17 315 0.0 3.2 0.00 0.00 0.00 84 1014.1
20260506213040 17 315 0.0 3.2 0.00 0.00 0.00 84 1014.1
20260506212834 17 315 0.0 3.2 0.00 0.00 0.00 84 1014.2
20260506212652 17 315 0.0 3.2 0.00 0.00 0.00 84 1014.2
20260506212257 17 315 0.0 3.2 0.00 0.00 0.00 84 1014.2
20260506212214 17 315 0.0 3.2 0.00 0.00 0.00 84 1014.2
20260506212108 17 315 0.0 3.2 0.00 0.00 0.00 84 1014.1
20260506211950 17 315 0.0 1.6 0.00 0.00 0.00 83 1014.2
20260506211751 17 315 0.0 1.6 0.00 0.00 0.00 83 1014.2
20260506211601 17 315 0.0 1.6 0.00 0.00 0.00 83 1014.2
20260506211427 17 315 0.0 1.6 0.00 0.00 0.00 83 1014.2
20260506211323 17 315 0.0 1.6 0.00 0.00 0.00 83 1014.2
20260506211159 17 315 0.0 1.6 0.00 0.00 0.00 83 1014.2
20260506210958 17 315 0.0 1.6 0.00 0.00 0.00 83 1014.2
20260506210823 17 315 0.0 1.6 0.00 0.00 0.00 83 1014.2
20260506210802 17 315 0.0 1.6 0.00 0.00 0.00 83 1014.2
20260506210627 17 315 0.0 1.6 0.00 0.00 0.00 83 1014.2
20260506210452 17 315 0.0 1.6 0.00 0.00 0.00 83 1014.2
20260506210022 17 315 0.0 1.6 0.00 0.00 0.00 83 1014.2
20260506205852 17 315 0.0 3.2 0.00 0.00 0.00 83 1014.2
20260506205725 17 315 1.6 4.8 0.00 0.00 0.00 83 1014.2
20260506205643 17 315 1.6 4.8 0.00 0.00 0.00 83 1014.2
20260506205428 16 307 3.2 6.4 0.00 0.00 0.00 82 1014.5
20260506205343 17 315 1.6 4.8 0.00 0.00 0.00 83 1014.3
20260506205140 17 315 1.6 4.8 0.00 0.00 0.00 83 1014.3
20260506205122 17 316 1.6 4.8 0.00 0.00 0.00 83 1014.3
20260506204955 17 315 1.6 4.8 0.00 0.00 0.00 83 1014.3
20260506204745 17 315 1.6 4.8 0.00 0.00 0.00 83 1014.4
20260506204641 17 315 1.6 4.8 0.00 0.00 0.00 83 1014.4
20260506204608 17 311 1.6 4.8 0.00 0.00 0.00 83 1014.4
20260506204402 17 300 1.6 4.8 0.00 0.00 0.00 83 1014.3
20260506204137 17 308 1.6 4.8 0.00 0.00 0.00 83 1014.4
20260506203935 17 300 1.6 4.8 0.00 0.00 0.00 83 1014.3
20260506203716 17 302 1.6 4.8 0.00 0.00 0.00 83 1014.3
20260506203618 17 302 1.6 4.8 0.00 0.00 0.00 83 1014.3
20260506203542 17 302 1.6 4.8 0.00 0.00 0.00 83 1014.2
20260506203347 17 301 1.6 4.8 0.00 0.00 0.00 83 1014.3
20260506203200 17 302 1.6 4.8 0.00 0.00 0.00 83 1014.2
20260506203130 17 302 1.6 4.8 0.00 0.00 0.00 83 1014.2
20260506203016 17 234 1.6 3.2 0.00 0.00 0.00 83 1014.3
20260506202836 17 233 0.0 3.2 0.00 0.00 0.00 82 1014.2
20260506202753 17 233 0.0 3.2 0.00 0.00 0.00 82 1014.2
20260506202714 17 234 0.0 3.2 0.00 0.00 0.00 82 1014.2
20260506202531 17 234 0.0 3.2 0.00 0.00 0.00 82 1014.2
20260506202258 17 234 0.0 3.2 0.00 0.00 0.00 82 1014.2
20260506202244 17 233 0.0 3.2 0.00 0.00 0.00 82 1014.2
20260506202112 17 234 0.0 1.6 0.00 0.00 0.00 82 1014.1
20260506201835 17 234 0.0 1.6 0.00 0.00 0.00 82 1014.2
20260506201730 17 233 0.0 1.6 0.00 0.00 0.00 82 1014.2
20260506201651 17 233 0.0 1.6 0.00 0.00 0.00 82 1014.1
20260506201256 17 233 0.0 3.2 0.00 0.00 0.00 82 1014.1
20260506201047 18 233 0.0 3.2 0.00 0.00 0.00 82 1014.1
20260506201039 18 234 0.0 3.2 0.00 0.00 0.00 82 1014.1
20260506200904 18 233 0.0 3.2 0.00 0.00 0.00 82 1014.1
20260506200737 18 234 0.0 3.2 0.00 0.00 0.00 82 1014.0
20260506200656 18 234 0.0 3.2 0.00 0.00 0.00 82 1014.0
20260506200615 18 234 0.0 3.2 0.00 0.00 0.00 82 1014.0
20260506200455 18 234 0.0 1.6 0.00 0.00 0.00 82 1014.0
20260506200219 18 234 0.0 3.2 0.00 0.00 0.00 82 1013.9
20260506195830 18 233 0.0 3.2 0.00 0.00 0.00 82 1013.9
20260506195732 12 304 1.6 4.8 0.00 0.00 0.00 89 1014.4
20260506195633 18 234 0.0 3.2 0.00 0.00 0.00 82 1014.0
20260506195539 18 233 1.6 3.2 0.00 0.00 0.00 82 1014.0
20260506195438 18 233 1.6 3.2 0.00 0.00 0.00 82 1014.0
20260506195233 18 234 1.6 3.2 0.00 0.00 0.00 82 1014.1
20260506195049 18 233 1.6 3.2 0.00 0.00 0.00 82 1014.0
20260506195036 18 234 1.6 3.2 0.00 0.00 0.00 82 1014.0
20260506194842 18 234 1.6 4.8 0.00 0.00 0.00 82 1014.0
20260506194651 18 234 1.6 4.8 0.00 0.00 0.00 82 1014.0
20260506194624 18 233 1.6 4.8 0.00 0.00 0.00 82 1014.0
20260506194529 18 198 1.6 4.8 0.00 0.00 0.00 82 1013.8
20260506194345 18 198 1.6 4.8 0.00 0.00 0.00 82 1013.9
20260506194152 18 198 1.6 4.8 0.00 0.00 0.00 82 1013.8
20260506194101 18 198 1.6 4.8 0.00 0.00 0.00 82 1013.8
20260506193851 18 210 0.0 4.8 0.00 0.00 0.00 82 1013.8
20260506193728 18 192 0.0 3.2 0.00 0.00 0.00 82 1013.7
20260506193647 18 192 0.0 3.2 0.00 0.00 0.00 82 1013.7
20260506193531 18 192 1.6 4.8 0.00 0.00 0.00 82 1013.7
20260506193337 18 192 1.6 4.8 0.00 0.00 0.00 82 1013.7
20260506193149 18 192 1.6 4.8 0.00 0.00 0.00 82 1013.7
20260506193035 18 192 1.6 4.8 0.00 0.00 0.00 82 1013.7
20260506192822 18 218 1.6 4.8 0.00 0.00 0.00 82 1013.7
20260506192627 18 202 1.6 4.8 0.00 0.00 0.00 82 1013.7
20260506192513 18 211 1.6 4.8 0.00 0.00 0.00 82 1013.7
20260506192343 18 232 1.6 4.8 0.00 0.00 0.00 82 1013.7
20260506192157 18 141 0.0 3.2 0.00 0.00 0.00 82 1013.7
20260506192123 18 141 0.0 3.2 0.00 0.00 0.00 82 1013.7
20260506191906 18 141 0.0 3.2 0.00 0.00 0.00 82 1013.7
20260506191616 18 141 0.0 3.2 0.00 0.00 0.00 82 1013.7
20260506191405 18 141 0.0 1.6 0.00 0.00 0.00 82 1013.7
20260506191221 18 141 0.0 1.6 0.00 0.00 0.00 82 1013.7
20260506191108 18 141 0.0 1.6 0.00 0.00 0.00 82 1013.7
20260506191027 18 141 0.0 1.6 0.00 0.00 0.00 82 1013.7
20260506190843 18 141 0.0 1.6 0.00 0.00 0.00 81 1013.7
20260506190719 18 141 0.0 1.6 0.00 0.00 0.00 81 1013.7
20260506190640 18 141 0.0 1.6 0.00 0.00 0.00 81 1013.7
20260506190512 18 141 0.0 3.2 0.00 0.00 0.00 81 1013.7
20260506190350 18 141 0.0 3.2 0.00 0.00 0.00 81 1013.7
20260506190216 18 141 0.0 3.2 0.00 0.00 0.00 81 1013.7
20260506190146 18 141 0.0 3.2 0.00 0.00 0.00 81 1013.7
20260506185942 18 141 1.6 3.2 0.00 0.00 0.00 81 1013.6
20260506185733 18 141 1.6 3.2 0.00 0.00 0.00 81 1013.7
20260506185641 18 141 1.6 3.2 0.00 0.00 0.00 81 1013.7
20260506185525 18 141 1.6 6.4 0.00 0.00 0.00 81 1013.5
20260506185341 18 141 1.6 6.4 0.00 0.00 0.00 81 1013.6
20260506185241 18 159 1.6 8.0 0.00 0.00 0.00 81 1013.6
20260506185203 18 159 1.6 8.0 0.00 0.00 0.00 81 1013.6
20260506185046 18 149 1.6 8.0 0.00 0.00 0.00 81 1013.6
20260506184913 18 121 1.6 8.0 0.00 0.00 0.00 81 1013.5
20260506184434 18 113 1.6 8.0 0.00 0.00 0.00 81 1013.5
20260506184301 18 159 1.6 6.4 0.00 0.00 0.00 81 1013.5
20260506184202 18 183 1.6 4.8 0.00 0.00 0.00 80 1013.5
20260506184124 18 145 1.6 4.8 0.00 0.00 0.00 80 1013.5
20260506184004 18 123 1.6 4.8 0.00 0.00 0.00 80 1013.5
20260506183759 18 119 1.6 4.8 0.00 0.00 0.00 80 1013.4
20260506183746 18 113 1.6 4.8 0.00 0.00 0.00 80 1013.4
20260506183614 18 167 0.0 4.8 0.00 0.00 0.00 80 1013.4
20260506183424 18 137 0.0 3.2 0.00 0.00 0.00 80 1013.4
20260506183316 18 137 1.6 3.2 0.00 0.00 0.00 80 1013.3
20260506183225 18 137 1.6 3.2 0.00 0.00 0.00 80 1013.3
20260506183113 18 137 1.6 4.8 0.00 0.00 0.00 80 1013.3
20260506182746 18 117 1.6 4.8 0.00 0.00 0.00 80 1013.3
20260506182524 18 103 1.6 4.8 0.00 0.00 0.00 80 1013.2
20260506182324 18 165 1.6 4.8 0.00 0.00 0.00 79 1013.2
20260506182228 18 126 1.6 4.8 0.00 0.00 0.00 79 1013.2
20260506182103 18 154 0.0 4.8 0.00 0.00 0.00 79 1013.2
20260506181943 18 142 0.0 4.8 0.00 0.00 0.00 79 1013.1
20260506181727 18 192 0.0 1.6 0.00 0.00 0.00 79 1013.1
20260506181538 18 192 0.0 1.6 0.00 0.00 0.00 79 1013.1
20260506181416 18 192 0.0 1.6 0.00 0.00 0.00 78 1013.1
20260506181012 19 192 0.0 3.2 0.00 0.00 0.00 78 1013.1
20260506180802 19 192 0.0 3.2 0.00 0.00 0.00 78 1013.1
20260506180615 19 192 0.0 3.2 0.00 0.00 0.00 78 1013.1
20260506180540 19 192 0.0 3.2 0.00 0.00 0.00 78 1013.1
20260506180359 19 192 0.0 3.2 0.00 0.00 0.00 78 1013.0
20260506180155 19 192 0.0 3.2 0.00 0.00 0.00 78 1013.0
20260506180059 19 192 1.6 3.2 0.00 0.00 0.00 78 1013.0
20260506180010 19 192 1.6 8.0 0.00 0.00 0.00 78 1013.0
20260506175901 19 192 1.6 8.0 0.00 0.00 0.00 77 1012.9
20260506175723 19 192 1.6 8.0 0.00 0.00 0.00 77 1012.8
20260506175647 19 192 1.6 8.0 0.00 0.00 0.00 77 1012.9
20260506175518 19 192 1.6 8.0 0.00 0.00 0.00 77 1012.8
20260506175350 19 171 1.6 8.0 0.00 0.00 0.00 77 1012.8
20260506174958 19 155 1.6 6.4 0.00 0.00 0.00 77 1012.8
20260506174847 19 182 1.6 6.4 0.00 0.00 0.00 77 1012.8
20260506174739 19 153 1.6 6.4 0.00 0.00 0.00 76 1012.8
20260506174716 19 211 1.6 6.4 0.00 0.00 0.00 76 1012.7
20260506174607 19 212 1.6 6.4 0.00 0.00 0.00 76 1012.7
20260506174444 20 202 1.6 6.4 0.00 0.00 0.00 76 1012.7
20260506174343 20 202 1.6 6.4 0.00 0.00 0.00 76 1012.7
20260506174223 20 178 1.6 6.4 0.00 0.00 0.00 76 1012.7
20260506174044 20 171 1.6 6.4 0.00 0.00 0.00 76 1012.6
20260506173912 20 196 1.6 6.4 0.00 0.00 0.00 76 1012.7
20260506173850 20 191 1.6 6.4 0.00 0.00 0.00 76 1012.7
20260506173715 20 188 1.6 6.4 0.00 0.00 0.00 75 1012.6
20260506173552 20 173 1.6 6.4 0.00 0.00 0.00 75 1012.6
20260506173523 20 194 1.6 6.4 0.00 0.00 0.00 75 1012.6
20260506173418 20 213 1.6 6.4 0.00 0.00 0.00 75 1012.6
20260506173255 20 191 1.6 6.4 0.00 0.00 0.00 75 1012.6
20260506172923 20 192 1.6 6.4 0.00 0.00 0.00 75 1012.6
20260506172738 20 155 1.6 4.8 0.00 0.00 0.00 74 1012.6
20260506172548 20 196 1.6 4.8 0.00 0.00 0.00 74 1012.6
20260506172507 20 163 1.6 4.8 0.00 0.00 0.00 74 1012.5
20260506172410 20 157 1.6 6.4 0.00 0.00 0.00 74 1012.5
20260506172251 20 190 1.6 6.4 0.00 0.00 0.00 74 1012.5
20260506172057 20 187 3.2 6.4 0.00 0.00 0.00 74 1012.5
20260506172027 20 161 3.2 6.4 0.00 0.00 0.00 74 1012.5
20260506171831 20 187 3.2 6.4 0.00 0.00 0.00 73 1012.5
20260506171701 20 214 3.2 6.4 0.00 0.00 0.00 73 1012.4
20260506171302 20 176 3.2 8.0 0.00 0.00 0.00 73 1012.5
20260506171045 21 153 3.2 8.0 0.00 0.00 0.00 73 1012.5
20260506170927 21 197 3.2 8.0 0.00 0.00 0.00 73 1012.4
20260506170852 21 144 3.2 8.0 0.00 0.00 0.00 73 1012.4
20260506170720 21 207 3.2 8.0 0.00 0.00 0.00 73 1012.5
20260506170436 21 178 3.2 8.0 0.00 0.00 0.00 72 1012.5
20260506170410 21 169 3.2 8.0 0.00 0.00 0.00 72 1012.5
20260506170214 21 202 3.2 8.0 0.00 0.00 0.00 72 1012.5
20260506170005 21 214 3.2 6.4 0.00 0.00 0.00 72 1012.5
20260506165917 21 200 1.6 8.0 0.00 0.00 0.00 72 1012.5
20260506165836 21 155 1.6 8.0 0.00 0.00 0.00 72 1012.5
20260506165719 21 113 3.2 8.0 0.00 0.00 0.00 72 1012.5
20260506165526 21 169 3.2 9.7 0.00 0.00 0.00 71 1012.5
20260506165508 21 171 3.2 9.7 0.00 0.00 0.00 71 1012.5
20260506165346 21 186 3.2 9.7 0.00 0.00 0.00 71 1012.5
20260506165210 21 176 3.2 9.7 0.00 0.00 0.00 71 1012.5
20260506165129 21 236 3.2 9.7 0.00 0.00 0.00 71 1012.5
20260506165029 21 201 3.2 9.7 0.00 0.00 0.00 71 1012.5
20260506164824 21 154 3.2 9.7 0.00 0.00 0.00 71 1012.5
20260506164527 21 176 3.2 8.0 0.00 0.00 0.00 71 1012.5
20260506164518 21 164 3.2 8.0 0.00 0.00 0.00 71 1012.5
20260506164337 21 144 3.2 8.0 0.00 0.00 0.00 71 1012.4
20260506164215 21 171 3.2 8.0 0.00 0.00 0.00 70 1012.4
20260506163805 21 181 3.2 8.0 0.00 0.00 0.00 70 1012.5
20260506163618 21 209 4.8 11.3 0.00 0.00 0.00 70 1012.4
20260506163436 21 170 4.8 16.1 0.00 0.00 0.00 70 1012.5
20260506163427 21 205 4.8 16.1 0.00 0.00 0.00 70 1012.5
20260506163252 21 207 4.8 16.1 0.00 0.00 0.00 70 1012.5
20260506163110 21 194 6.4 16.1 0.00 0.00 0.00 70 1012.5
20260506163009 21 191 6.4 16.1 0.00 0.00 0.00 70 1012.5
20260506162852 21 159 6.4 16.1 0.00 0.00 0.00 70 1012.5
20260506162651 21 205 6.4 16.1 0.00 0.00 0.00 70 1012.6
20260506162448 21 172 6.4 14.5 0.00 0.00 0.00 69 1012.6
20260506162443 21 209 6.4 14.5 0.00 0.00 0.00 69 1012.6
20260506162227 22 198 6.4 14.5 0.00 0.00 0.00 69 1012.6
20260506162059 22 174 4.8 12.9 0.00 0.00 0.00 69 1012.6
20260506162017 22 155 4.8 12.9 0.00 0.00 0.00 69 1012.5
20260506161911 22 178 4.8 11.3 0.00 0.00 0.00 69 1012.5
20260506161714 22 159 4.8 12.9 0.00 0.00 0.00 69 1012.6
20260506161452 22 142 4.8 12.9 0.00 0.00 0.00 69 1012.5
20260506160955 22 210 4.8 12.9 0.00 0.00 0.00 69 1012.6
20260506160828 22 211 6.4 12.9 0.00 0.00 0.00 69 1012.5
20260506160726 22 204 6.4 14.5 0.00 0.00 0.00 69 1012.6
20260506160609 22 238 6.4 16.1 0.00 0.00 0.00 69 1012.5
20260506160432 22 221 6.4 16.1 0.00 0.00 0.00 69 1012.5
20260506160232 22 194 6.4 16.1 0.00 0.00 0.00 68 1012.6
20260506160224 22 224 6.4 16.1 0.00 0.00 0.00 68 1012.6
20260506160030 22 227 8.0 16.1 0.00 0.00 0.00 68 1012.5
20260506155837 22 198 8.0 16.1 0.00 0.00 0.00 67 1012.5
20260506155735 22 209 6.4 16.1 0.00 0.00 0.00 67 1012.5
20260506155615 22 222 6.4 16.1 0.00 0.00 0.00 67 1012.6
20260506155401 22 223 6.4 16.1 0.00 0.00 0.00 67 1012.5
20260506155157 22 214 6.4 16.1 0.00 0.00 0.00 67 1012.5
20260506155151 22 210 6.4 16.1 0.00 0.00 0.00 67 1012.5
20260506154947 22 203 6.4 16.1 0.00 0.00 0.00 66 1012.5
20260506154758 22 219 6.4 16.1 0.00 0.00 0.00 66 1012.5
20260506154331 22 191 6.4 16.1 0.00 0.00 0.00 66 1012.6
20260506154141 22 234 6.4 16.1 0.00 0.00 0.00 65 1012.6
20260506153950 22 178 4.8 12.9 0.00 0.00 0.00 65 1012.6
20260506153939 22 165 4.8 12.9 0.00 0.00 0.00 65 1012.6
20260506153714 23 223 4.8 16.1 0.00 0.00 0.00 65 1012.6
20260506153521 11 292 1.6 6.4 0.00 0.00 0.00 87 1013.8
20260506153509 23 186 6.4 16.1 0.00 0.00 0.00 65 1012.6
20260506153422 23 78 6.4 16.1 0.00 0.00 0.00 65 1012.6
20260506153312 23 208 6.4 16.1 0.00 0.00 0.00 64 1012.6
20260506153106 23 225 6.4 16.1 0.00 0.00 0.00 64 1012.6
20260506152919 23 140 6.4 16.1 0.00 0.00 0.00 64 1012.6
20260506152911 23 153 6.4 16.1 0.00 0.00 0.00 64 1012.6
20260506152716 23 157 6.4 16.1 0.00 0.00 0.00 63 1012.6
20260506152545 23 223 6.4 16.1 0.00 0.00 0.00 63 1012.6
20260506152505 23 210 6.4 16.1 0.00 0.00 0.00 63 1012.6
20260506152407 23 191 6.4 16.1 0.00 0.00 0.00 63 1012.6
20260506152243 23 182 6.4 16.1 0.00 0.00 0.00 63 1012.6
20260506151903 23 136 4.8 16.1 0.00 0.00 0.00 63 1012.6
20260506151701 23 224 4.8 12.9 0.00 0.00 0.00 63 1012.6
20260506151511 23 168 4.8 16.1 0.00 0.00 0.00 63 1012.6
20260506151429 23 199 6.4 16.1 0.00 0.00 0.00 64 1012.6
20260506151323 23 189 6.4 16.1 0.00 0.00 0.00 64 1012.6
20260506151204 23 156 8.0 16.1 0.00 0.00 0.00 64 1012.5
20260506151046 23 176 9.7 16.1 0.00 0.00 0.00 64 1012.5
20260506151031 23 281 9.7 16.1 0.00 0.00 0.00 64 1012.5
20260506150906 23 196 8.0 16.1 0.00 0.00 0.00 64 1012.6
20260506150733 23 157 8.0 16.1 0.00 0.00 0.00 63 1012.6
20260506150704 23 216 8.0 16.1 0.00 0.00 0.00 63 1012.6
20260506150559 23 214 6.4 17.7 0.00 0.00 0.00 63 1012.6
20260506150430 23 199 6.4 17.7 0.00 0.00 0.00 63 1012.6
20260506150052 23 272 6.4 17.7 0.00 0.00 0.00 63 1012.7
20260506145929 23 259 6.4 17.7 0.00 0.00 0.00 62 1012.6
20260506145804 23 190 6.4 17.7 0.00 0.00 0.00 62 1012.6
20260506145735 23 168 6.4 17.7 0.00 0.00 0.00 63 1012.6
20260506145640 23 217 6.4 14.5 0.00 0.00 0.00 62 1012.6
20260506145453 23 161 6.4 14.5 0.00 0.00 0.00 61 1012.6
20260506145309 23 138 6.4 12.9 0.00 0.00 0.00 62 1012.6
20260506145248 23 133 6.4 12.9 0.00 0.00 0.00 62 1012.6
20260506145124 23 165 6.4 12.9 0.00 0.00 0.00 62 1012.6
20260506144948 23 195 6.4 12.9 0.00 0.00 0.00 62 1012.7
20260506144553 23 157 8.0 12.9 0.00 0.00 0.00 62 1012.6
20260506144412 23 194 8.0 12.9 0.00 0.00 0.00 62 1012.6
20260506144007 23 207 6.4 12.9 0.00 0.00 0.00 61 1012.7
20260506143852 24 171 8.0 12.9 0.00 0.00 0.00 61 1012.7
20260506143728 24 247 8.0 14.5 0.00 0.00 0.00 62 1012.7
20260506143646 24 211 8.0 14.5 0.00 0.00 0.00 62 1012.7
20260506143534 24 252 8.0 17.7 0.00 0.00 0.00 61 1012.7
20260506143352 24 196 8.0 17.7 0.00 0.00 0.00 61 1012.7
20260506143252 24 206 8.0 17.7 0.00 0.00 0.00 61 1012.7
20260506143227 24 232 8.0 17.7 0.00 0.00 0.00 60 1012.7
20260506143049 24 164 8.0 17.7 0.00 0.00 0.00 60 1012.8
20260506142917 24 231 6.4 17.7 0.00 0.00 0.00 59 1012.8
20260506142902 24 173 6.4 17.7 0.00 0.00 0.00 59 1012.8
20260506142747 24 180 6.4 16.1 0.00 0.00 0.00 61 1012.8
20260506142612 24 195 6.4 16.1 0.00 0.00 0.00 60 1012.6
20260506142138 24 267 6.4 16.1 0.00 0.00 0.00 60 1012.7
20260506142018 24 206 8.0 16.1 0.00 0.00 0.00 60 1012.7
20260506141846 24 146 6.4 16.1 0.00 0.00 0.00 60 1012.8
20260506141820 24 196 6.4 16.1 0.00 0.00 0.00 60 1012.8
20260506141649 24 165 8.0 16.1 0.00 0.00 0.00 60 1012.7
20260506141521 24 171 8.0 16.1 0.00 0.00 0.00 59 1012.8
20260506141425 24 156 8.0 16.1 0.00 0.00 0.00 60 1012.8
20260506141325 24 203 8.0 16.1 0.00 0.00 0.00 60 1012.8
20260506141133 24 198 8.0 14.5 0.00 0.00 0.00 60 1012.8
20260506140959 24 195 8.0 17.7 0.00 0.00 0.00 60 1012.8
20260506140553 24 206 8.0 20.9 0.00 0.00 0.00 60 1012.8
20260506140422 24 210 9.7 20.9 0.00 0.00 0.00 60 1012.8
20260506135943 24 146 9.7 20.9 0.00 0.00 0.00 61 1012.8
20260506135802 24 197 9.7 20.9 0.00 0.00 0.00 60 1012.8
20260506135622 25 219 9.7 22.5 0.00 0.00 0.00 60 1012.8
20260506135250 12 333 1.6 6.4 0.00 0.00 0.00 86 1013.7
20260506135205 25 167 9.7 22.5 0.00 0.00 0.00 60 1012.8
20260506135006 25 219 9.7 22.5 0.00 0.00 0.00 60 1012.8
20260506134858 25 135 9.7 22.5 0.00 0.00 0.00 59 1012.8
20260506134815 25 192 9.7 22.5 0.00 0.00 0.00 59 1012.8
20260506134620 25 180 9.7 22.5 0.00 0.00 0.00 58 1012.8
20260506134542 12 311 3.2 6.4 0.00 0.00 0.00 85 1013.4
20260506134419 25 182 8.0 20.9 0.00 0.00 0.00 58 1012.8
20260506134402 25 207 8.0 20.9 0.00 0.00 0.00 58 1012.8
20260506134239 25 168 8.0 20.9 0.00 0.00 0.00 57 1012.8
20260506134054 25 168 8.0 20.9 0.00 0.00 0.00 57 1012.8
20260506133945 25 154 8.0 20.9 0.00 0.00 0.00 56 1012.8
20260506133853 25 163 8.0 20.9 0.00 0.00 0.00 56 1012.8
20260506133719 25 168 6.4 16.1 0.00 0.00 0.00 56 1012.8
20260506133400 25 146 6.4 16.1 0.00 0.00 0.00 57 1012.8
20260506133347 25 175 6.4 16.1 0.00 0.00 0.00 57 1012.8
20260506133203 25 168 6.4 16.1 0.00 0.00 0.00 56 1012.7
20260506133034 25 155 6.4 17.7 0.00 0.00 0.00 57 1012.8
20260506132944 25 172 8.0 17.7 0.00 0.00 0.00 58 1012.8
20260506132849 25 210 8.0 17.7 0.00 0.00 0.00 58 1012.8
20260506132605 25 209 8.0 17.7 0.00 0.00 0.00 58 1012.7
20260506132411 25 229 8.0 17.7 0.00 0.00 0.00 57 1012.8
20260506132349 25 219 8.0 17.7 0.00 0.00 0.00 57 1012.8
20260506132217 25 157 8.0 17.7 0.00 0.00 0.00 57 1012.8
20260506132009 25 130 8.0 16.1 0.00 0.00 0.00 57 1012.8
20260506131900 25 173 8.0 16.1 0.00 0.00 0.00 56 1012.8
20260506131829 26 151 8.0 16.1 0.00 0.00 0.00 56 1012.9
20260506131652 26 163 8.0 16.1 0.00 0.00 0.00 56 1012.9
20260506131517 26 117 6.4 16.1 0.00 0.00 0.00 55 1012.9
20260506131504 26 173 6.4 16.1 0.00 0.00 0.00 55 1012.9
20260506131327 26 200 6.4 16.1 0.00 0.00 0.00 56 1013.0
20260506131136 26 119 6.4 14.5 0.00 0.00 0.00 56 1013.0
20260506131033 26 165 6.4 14.5 0.00 0.00 0.00 56 1012.9
20260506131004 26 232 6.4 16.1 0.00 0.00 0.00 55 1012.9
20260506130827 26 176 6.4 16.1 0.00 0.00 0.00 55 1013.1
20260506130654 25 141 6.4 16.1 0.00 0.00 0.00 57 1013.0
20260506130240 25 187 6.4 16.1 0.00 0.00 0.00 57 1013.0
20260506130036 25 154 8.0 16.1 0.00 0.00 0.00 56 1013.1
20260506125936 25 180 8.0 16.1 0.00 0.00 0.00 56 1013.1
20260506125837 25 219 8.0 16.1 0.00 0.00 0.00 55 1013.1
20260506125651 25 168 8.0 17.7 0.00 0.00 0.00 56 1013.1
20260506125511 25 194 8.0 17.7 0.00 0.00 0.00 55 1013.1
20260506125457 25 148 8.0 17.7 0.00 0.00 0.00 55 1013.1
20260506125319 25 99 8.0 17.7 0.00 0.00 0.00 55 1013.1
20260506125116 26 168 8.0 17.7 0.00 0.00 0.00 54 1013.1
20260506125026 26 207 8.0 17.7 0.00 0.00 0.00 54 1013.1
20260506124950 26 203 8.0 17.7 0.00 0.00 0.00 54 1013.1
20260506124814 26 177 8.0 17.7 0.00 0.00 0.00 54 1013.2
20260506124620 26 203 8.0 17.7 0.00 0.00 0.00 54 1013.2
20260506124225 26 180 8.0 17.7 0.00 0.00 0.00 54 1013.2
20260506124019 26 173 8.0 17.7 0.00 0.00 0.00 53 1013.1
20260506123919 26 155 8.0 17.7 0.00 0.00 0.00 52 1013.1
20260506123840 26 138 6.4 17.7 0.00 0.00 0.00 53 1013.1
20260506123714 26 196 6.4 16.1 0.00 0.00 0.00 52 1013.2
20260506123536 26 183 6.4 16.1 0.00 0.00 0.00 52 1013.2
20260506123521 26 232 6.4 17.7 0.00 0.00 0.00 52 1013.2
20260506123412 26 130 8.0 17.7 0.00 0.00 0.00 52 1013.2
20260506123201 26 180 8.0 19.3 0.00 0.00 0.00 53 1013.2
20260506123056 26 141 8.0 19.3 0.00 0.00 0.00 53 1013.2
20260506123022 26 173 8.0 19.3 0.00 0.00 0.00 53 1013.2
20260506122837 26 183 8.0 19.3 0.00 0.00 0.00 53 1013.2